Location: Antist
(43.1184°N, 0.1270°E)
Time: 21:57:27
(UTC+00:00)

Cosmos 1269 Rocket - Pass Details

Date: 19 January 2020
Orbit: 773 x 779 km, 74.1° (Epoch: 16 February)

Event Time Altitude Azimuth Distance (km) Brightness Sun altitude
Rises 17:53:49 0° 345° (NNW) 3,260 7.2 -10.9°
Reaches altitude 10° 17:56:21 10° 353° (N) 2,329 6.4 -11.3°
Maximum altitude 18:01:19 40° 63° (ENE) 1,124 4.4 -12.2°
Drops below altitude 10° 18:06:16 10° 133° (SE) 2,317 6.2 -13.1°
Sets 18:08:47 0° 141° (SE) 3,241 7.0 -13.5°
